CAPE
1520 1084 1039 808 967 1371 1598 1860 1872 1858 1820 1910 2007 2056 1974 1797 1783 1699 1352 986 855 1026 1282 1096 830 775 929 980 704 620 713 1507 1779 1198 685 834 1049 669 573 368 191 202 159
1490 841 1324 1694 1776 1871 1858 1930 1719 1943 1664 1579 1681 1172 823 797 825 1512 2014 1677 1240 1067 1169 1036 834 718 797 126 211 516 867 894 1050 1543 1434 875 759 881 560 321 300 184 95
2266 1760 1726 2095 2040 2117 2222 1527 2253 1841 1503 1140 724 612 398 107 163 298 1504 2129 2070 1287 820 567 683 605 436 562 745 455 391 376 794 1248 1245 1098 753 639 823 422 583 245 135
2726 2293 1971 1895 2080 2041 555 559 1147 1187 844 659 543 340 217 236 633 1244 1836 2132 2015 1116 535 208 574 363 273 738 729 602 414 397 537 850 1186 1419 1146 795 608 526 657 647 208
2091 2431 1692 1902 2381 1837 1366 1151 989 1256 735 592 469 263 410 366 761 1026 1668 1665 985 379 199 238 336 113 111 411 761 697 610 541 511 681 951 1168 1537 1242 818 532 602 509 256
2016 2068 1614 2038 2123 1156 1352 1706 2198 1482 1366 1250 561 379 492 461 831 1007 853 499 519 279 171 139 157 88 161 418 621 503 532 489 414 473 764 993 1043 1266 1024 812 578 534 454
1860 2159 1189 1500 1471 1468 1835 1954 1676 1345 714 1385 428 524 277 456 495 522 447 361 199 61 36 51 44 53 256 222 516 285 288 229 245 127 57 243 775 821 1084 1004 610 464 450
1810 1801 2001 1797 1823 1537 1683 1548 1681 746 711 1718 799 473 110 212 141 190 305 261 125 17 11 29 24 178 312 375 393 217 112 184 172 104 52 0 21 449 687 1084 732 499 301
1646 1842 2058 2318 2317 2372 1750 1957 1845 1566 925 1263 496 265 112 11 64 115 159 208 110 103 132 107 230 291 432 236 275 156 223 313 294 138 33 0 0 5 250 602 795 562 454
2225 2069 2199 2530 2520 2125 2322 1776 1687 2224 1769 1057 999 247 162 33 0 0 0 20 44 50 136 94 278 306 262 119 54 70 104 186 305 321 113 26 0 0 0 186 621 615 438
2216 2078 2299 2493 2507 2317 1683 2559 2880 2664 1850 1653 1025 555 67 1 0 0 0 0 10 11 74 144 65 10 110 391 397 210 72 94 248 472 211 60 20 9 0 16 608 759 518
918 1599 2234 2264 2387 2225 2118 2135 2441 2707 2724 1804 1173 1180 154 70 0 0 1 1 6 19 96 44 26 6 167 335 310 274 226 330 297 197 169 158 182 146 33 10 447 694 617
572 997 2096 1946 1645 1502 1561 1587 1871 2445 2199 1433 1187 1028 611 311 0 0 0 2 5 40 39 22 15 55 131 250 102 175 247 204 109 71 75 102 151 220 162 82 102 600 576
306 854 1626 1375 1098 918 847 1085 1788 1390 1897 1926 1859 1673 752 611 118 0 2 3 3 14 3 43 34 4 120 147 69 5 41 54 75 49 52 67 85 60 33 31 98 187 375
389 357 933 1118 1049 747 844 1527 1461 1057 1008 1098 1369 1766 1415 1340 1067 79 2 2 4 0 0 2 19 64 62 42 24 17 13 26 47 30 6 0 0 0 0 0 5 116 178
1142 1192 1318 1503 978 918 1273 1591 1029 501 1580 2149 2043 1566 1494 1378 1480 326 13 25 38 0 1 0 11 51 7 15 24 12 20 0 0 0 0 0 0 0 2 31 0 28 119
1742 1959 2043 1775 1539 989 979 1236 2001 2034 1655 1847 1969 1540 1320 1511 1542 550 156 127 1 0 0 7 9 25 8 19 39 10 0 10 0 0 0 0 0 0 0 12 7 49 94
2074 2470 2260 2171 1868 2112 2485 2829 2531 2224 1797 1742 1619 1413 1364 1640 1800 920 650 254 8 0 0 3 24 17 1 47 24 8 1 42 42 0 0 0 0 0 0 0 0 0 1
2195 2338 2110 2362 2610 2872 2744 2372 2135 2006 1849 1529 1662 1709 1657 1631 1534 1391 863 119 5 0 3 0 14 16 9 53 62 36 34 79 50 0 0 0 0 0 0 0 0 0 0
2363 2491 2645 3050 3032 2473 2097 2109 1736 1660 1908 1920 1710 1568 1624 1589 1548 1349 758 11 1 0 1 10 11 12 13 16 40 25 43 33 19 30 7 3 0 0 0 0 0 0 0
2715 2673 3218 2842 2462 2091 981 532 1059 1693 1859 1957 1534 1322 1236 569 842 1155 195 4 0 0 4 12 17 5 18 20 24 13 34 40 48 85 48 9 5 2 0 0 0 0 0
3140 2946 2513 2359 1552 865 8 11 59 1799 1544 889 723 765 708 584 416 310 25 1 0 0 0 6 1 3 8 17 23 17 26 32 27 30 65 35 17 18 12 15 0 0 0
2664 2705 2167 1096 700 311 0 36 352 1362 1114 832 722 655 468 108 39 1 0 0 0 0 0 6 0 5 4 8 2 3 25 42 49 31 36 19 40 27 21 2 0 0 0
2721 1909 957 677 579 0 0 3 309 1234 1199 777 520 476 297 29 11 0 0 0 0 0 0 4 2 8 10 8 0 0 0 2 29 39 38 36 31 27 9 17 0 0 0
1726 1014 738 440 200 0 0 0 197 797 893 454 376 19 125 1 0 0 0 0 0 0 0 0 0 0 1 0 0 9 1 9 43 12 0 29 7 21 11 8 0 0 0
1347 842 430 19 0 2 0 0 0 468 508 319 42 1 0 0 0 0 0 0 0 0 0 0 0 0 0 0 0 11 15 26 36 29 11 12 7 13 13 0 9 0 0
CIN
-0 -12 -20 -25 -20 -0 -1 -0 -1 -1 -1 -1 -0 -0 -1 -1 -1 -1 -1 -35 -69 -81 -54 -62 -49 -59 -46 -36 -61 -54 -26 -3 -0 -6 -19 -15 -6 -14 -14 -40 -37 -11 -22
-4 -15 -7 -0 -1 -0 -0 -0 -1 -3 -1 -2 -1 -2 -5 -2 -1 -1 -0 -5 -50 -65 -58 -46 -34 -19 -59 -120 -95 -66 -32 -24 -14 -3 -2 -21 -28 -10 -12 -20 -11 -23 -63
-7 -32 -1 -0 -1 -0 -7 -2 -7 -4 -1 -1 -1 -3 -9 -51 -37 -18 -0 -1 -5 -36 -19 -6 -24 -27 -54 -61 -48 -78 -55 -56 -40 -8 -3 -10 -33 -40 -12 -21 -14 -51 -75
-10 -8 -1 -0 -1 -1 -4 -11 -0 -0 -1 -9 -25 -38 -53 -52 -16 -3 -0 -0 -0 -9 -15 -24 -3 -32 -15 -26 -29 -39 -63 -67 -44 -29 -13 -5 -16 -33 -35 -22 -5 -2 -58
-0 -3 -0 -1 -0 -0 -1 -8 -0 -3 -18 -21 -26 -27 -23 -32 -6 -11 -11 -27 -44 -88 -71 -18 -18 -45 -28 -4 -13 -15 -25 -39 -23 -45 -43 -20 -5 -9 -28 -30 -11 -9 -31
-0 -3 -1 -2 -2 -0 -0 -0 -3 -0 -4 -6 -8 -9 -24 -25 -22 -24 -46 -81 -60 -74 -102 -49 -28 -15 -8 -9 -8 -26 -46 -54 -47 -51 -42 -40 -25 -10 -19 -14 -15 -22 -24
-2 -2 -1 -0 -3 -3 -11 -1 -2 -2 -1 -16 -2 -44 -19 -22 -21 -21 -43 -53 -78 -99 -70 -39 -65 -23 -2 -17 -1 -36 -43 -80 -120 -132 -135 -116 -38 -26 -13 -11 -18 -18 -13
-3 -5 -9 -2 -8 -2 -16 -6 -3 -27 -6 -10 -17 -26 -22 -6 -20 -51 -33 -38 -53 -98 -36 -20 -54 -8 -4 -2 -0 -47 -71 -38 -65 -69 -125 -0 -104 -51 -24 -2 -10 -10 -10
-8 -11 -12 -10 -11 -15 -1 -2 -2 -11 -7 -3 -43 -41 -59 -53 -32 -20 -4 -6 -49 -17 -12 -21 -9 -0 -0 -3 -4 -15 -7 -3 -13 -33 -88 -0 -0 -83 -74 -25 -8 -10 -4
-10 -13 -18 -13 -15 -4 -5 -1 -2 -2 -3 -2 -20 -83 -90 -121 -0 -0 -0 -29 -34 -23 -2 -22 -0 -0 -0 -18 -45 -22 -6 -5 -3 -14 -57 -107 -0 -56 -0 -69 -23 -14 -14
-11 -14 -16 -14 -8 -3 -1 -11 -9 -3 -4 -2 -3 -25 -121 -55 -0 -0 -0 -0 -21 -29 -5 -3 -26 -111 -5 -0 -1 -14 -31 -43 -3 -1 -22 -56 -69 -91 -7 -115 -13 -1 -1
-1 -1 -8 -12 -14 -13 -7 -4 -1 -3 -2 -2 -2 -1 -49 -51 -0 -0 -0 -0 -0 -10 -1 -17 -70 -43 -8 -0 -1 -10 -17 -8 -10 -15 -11 -28 -25 -34 -69 -98 -11 -0 -0
-2 -1 -9 -18 -8 -8 -21 -15 -2 -0 -0 -1 -2 -2 -39 -24 -0 -0 -0 -0 -0 -2 -6 -63 -88 -44 -3 -0 -0 -0 -5 -4 -10 -11 -32 -37 -17 -17 -30 -58 -60 -0 -0
-19 -7 -20 -30 -42 -46 -37 -19 -2 -1 -0 -1 -1 -2 -7 -3 -90 -0 -0 -0 -0 -0 -15 -52 -35 -5 -0 -0 -2 -4 -87 -14 -9 -16 -15 -19 -27 -49 -71 -71 -47 -25 -0
-52 -78 -65 -53 -54 -69 -59 -9 -5 -4 -8 -10 -2 -4 -4 -3 -23 -83 -0 -0 -21 -0 -0 -0 -0 -0 -6 -0 -17 -19 -28 -8 -13 -42 -98 -0 -0 -0 -0 -0 -30 -52 -14
-55 -71 -64 -57 -80 -85 -45 -9 -23 -27 -1 -1 -2 -1 -1 -2 -8 -53 -114 -31 -9 -0 -0 -0 -0 -0 -1 -12 -6 -6 -4 -0 -0 -0 -0 -0 -0 -0 -11 -25 -0 -68 -16
-53 -57 -51 -54 -68 -99 -79 -46 -5 -0 -1 -1 -0 -1 -1 -1 -1 -42 -60 -27 -87 -0 -0 -0 -3 -1 -0 -10 -5 -11 -5 -15 -0 -0 -0 -0 -0 -0 -0 -1 -12 -40 -15
-59 -49 -47 -46 -60 -27 -2 -0 -1 -0 -1 -1 -2 -1 -2 -1 -0 -21 -10 -14 -88 -0 -0 -0 -0 -0 -11 -0 -9 -21 -0 -1 -3 -0 -0 -0 -0 -0 -0 -0 -0 -0 -2
-67 -46 -54 -47 -21 -0 -0 -1 -1 -1 -0 -1 -1 -1 -0 -1 -2 -1 -5 -55 -73 -0 -0 -0 -0 -0 -3 -0 -0 -1 -1 -0 -1 -0 -0 -0 -0 -0 -0 -17 -0 -0 -0
-82 -47 -41 -14 -8 -14 -12 -7 -19 -10 -1 -0 -0 -1 -0 -0 -0 -1 -10 -57 -0 -0 -0 -1 -0 -0 -2 -4 -0 -1 -1 -1 -0 -0 -1 -0 -0 -0 -0 -0 -0 -0 -0
-68 -50 -11 -20 -34 -39 -122 -213 -115 -29 -2 -0 -6 -21 -28 -111 -45 -9 -68 -0 -0 -0 -1 -1 -0 -0 -0 -6 -1 -1 -1 -4 -0 -0 -0 -0 -1 -0 -0 -0 -0 -0 -0
-37 -33 -42 -46 -127 -150 -189 -568 -426 -15 -24 -78 -97 -90 -95 -101 -103 -88 -132 -0 -0 -0 -0 -0 -1 -1 -0 -1 -5 -1 -2 -6 -0 -0 -0 -0 -0 -0 -0 -0 -0 -0 -0
-49 -33 -74 -173 -209 -294 -0 -503 -243 -53 -57 -86 -99 -101 -126 -234 -272 -0 -0 -0 -0 -0 -0 -0 -0 -0 -3 -1 -22 -6 -13 -1 -1 -1 -0 -0 -0 -1 -0 -1 -0 -0 -0
-30 -93 -188 -203 -203 -0 -0 -136 -248 -56 -41 -86 -127 -124 -143 -300 -296 -0 -0 -0 -0 -0 -0 -1 -1 -1 -1 -1 -0 -10 -0 -11 -6 -0 -0 -0 -0 -1 -1 -1 -0 -0 -0
-104 -168 -174 -208 -310 -0 -0 -0 -225 -78 -60 -125 -144 -41 -181 -11 -0 -0 -0 -0 -0 -0 -0 -0 -0 -0 -1 -0 -0 -1 -1 -18 -0 -5 -3 -0 -3 -1 -0 -1 -0 -0 -0
-100 -131 -196 -201 -0 -0 -0 -0 -0 -114 -106 -141 -267 -0 -0 -0 -0 -0 -0 -0 -0 -0 -0 -0 -0 -0 -0 -0 -0 -3 -1 -1 -0 -0 -0 -1 -0 -0 -0 -1 -1 -0 -0
Wind_Speed
15 15 15 14 14 14 13 12 11 11 10 9 8 7 5 3 3 2 1 3 3 1 3 3 2 3 6 11 12 14 15 14 11 9 10 8 4 4 6 5 6 5 15
15 15 15 15 14 13 12 10 10 10 9 9 10 9 5 2 1 2 1 1 3 6 3 4 3 7 8 8 13 16 18 15 11 7 7 8 8 6 7 6 5 5 8
16 15 14 13 13 13 10 11 12 12 10 13 13 11 9 9 8 8 3 3 5 4 8 6 8 10 11 11 12 13 15 15 12 10 9 10 12 10 8 7 7 5 9
17 15 14 13 18 14 19 20 17 16 14 19 19 19 23 21 20 15 14 6 10 21 12 14 15 12 14 11 12 15 15 14 13 10 7 9 8 7 12 10 10 8 9
16 15 14 5 17 16 19 20 20 20 21 22 22 22 25 25 23 22 19 17 16 14 11 11 13 11 7 10 7 10 14 13 14 11 9 11 9 9 9 12 10 10 11
18 15 17 17 19 17 18 21 19 21 19 22 26 25 23 24 24 23 22 19 16 15 16 14 16 12 9 4 6 7 11 12 13 12 11 11 11 12 10 13 10 11 11
11 11 12 14 15 14 16 17 17 19 23 25 25 27 22 23 24 25 23 20 18 18 14 17 16 15 19 1 4 7 9 9 6 8 8 11 11 13 10 16 13 13 13
12 12 12 13 15 13 12 13 16 20 22 23 23 22 14 13 20 23 20 18 20 20 19 9 10 16 7 2 1 4 4 6 3 4 8 10 9 9 16 18 15 15 15
11 10 10 9 10 9 8 15 16 18 20 19 19 13 12 13 18 16 15 17 22 22 20 14 6 14 1 1 3 4 5 2 3 4 7 8 10 10 15 15 17 17 16
9 8 6 7 7 7 13 14 15 14 14 15 17 14 10 11 20 16 12 11 15 19 19 9 26 2 5 1 4 5 4 4 2 5 8 12 11 16 15 16 17 11 14
8 10 9 7 7 8 16 14 14 12 10 11 13 12 13 13 16 18 16 15 12 16 10 7 11 8 7 3 1 5 5 4 8 6 6 9 13 17 18 17 16 12 16
8 12 10 8 8 10 9 12 11 9 8 10 11 13 12 16 15 18 18 11 10 10 10 12 12 11 7 5 5 9 6 6 2 0 3 9 15 20 20 19 16 14 21
4 14 11 6 2 3 6 7 10 10 8 7 8 10 9 11 15 15 15 14 8 7 10 15 12 8 8 10 12 11 10 6 4 2 2 17 19 18 19 20 18 19 22
6 7 4 4 3 2 3 8 9 10 15 9 8 10 10 11 13 12 16 16 13 5 10 17 12 10 11 13 13 13 13 8 8 6 6 10 18 18 20 21 21 20 23
2 2 3 6 2 3 2 5 7 12 14 12 13 13 12 12 13 13 11 12 14 16 12 14 15 13 15 16 14 14 13 15 9 4 5 9 16 18 21 23 24 23 21
4 4 4 4 5 7 8 9 10 9 10 9 11 12 12 14 12 13 12 10 13 17 16 15 16 16 16 18 17 17 14 17 17 10 18 16 16 18 19 22 23 25 25
5 5 5 5 7 8 9 10 8 8 8 9 10 12 10 12 14 13 12 11 15 16 18 20 18 18 19 19 20 20 21 15 14 16 17 17 16 17 17 17 19 24 25
4 5 5 5 6 6 7 7 8 10 11 10 11 10 10 12 13 12 11 12 14 14 16 18 18 19 19 19 21 21 19 18 21 22 19 18 18 17 17 17 18 20 22
3 3 4 4 6 5 9 8 9 9 9 9 11 14 14 14 13 12 12 13 14 15 16 18 18 19 20 20 22 22 24 24 23 21 19 19 20 19 17 17 19 19 19
2 2 4 5 10 9 10 9 9 9 10 12 15 17 19 19 16 14 13 13 13 15 16 17 18 20 20 21 21 22 23 23 23 23 18 18 20 20 19 18 20 21 19
0 7 7 10 14 14 20 14 12 13 14 16 19 19 20 20 17 15 15 14 15 15 16 17 19 20 19 20 20 21 22 24 23 19 17 19 21 21 20 22 24 24 23
4 10 10 16 19 20 24 19 15 17 20 20 22 22 22 23 21 18 17 17 16 15 15 16 17 19 19 19 21 21 22 24 23 24 22 20 19 19 20 23 23 22 24
8 11 15 18 20 21 23 22 20 19 20 21 23 24 24 24 22 21 20 19 18 17 17 16 17 19 20 20 21 22 22 23 20 20 23 22 22 21 22 24 25 24 22
9 12 14 16 18 21 22 23 20 19 20 22 23 24 24 23 22 21 20 18 17 17 18 17 18 19 21 21 22 22 23 22 17 17 20 23 23 25 24 24 25 25 23
10 12 14 15 17 19 23 23 21 19 21 22 23 23 22 21 20 19 19 18 17 16 17 18 20 20 20 22 24 23 23 23 21 20 22 21 24 23 23 26 24 26 24
10 11 13 15 16 18 22 23 23 19 21 21 21 21 21 19 18 16 16 16 15 15 16 16 17 19 20 19 21 20 20 21 21 20 24 24 23 24 25 27 27 25 27
Wind_Direction
195 185 180 174 176 174 146 147 140 130 112 111 99 98 105 88 175 143 101 42 23 8 9 2 20 13 342 328 324 323 318 314 314 304 293 283 252 217 200 194 269 271 263
186 180 167 165 159 154 164 146 117 94 89 73 53 48 54 32 249 334 257 60 351 332 319 343 337 331 332 338 323 318 313 315 312 301 288 279 273 251 222 222 190 262 258
174 185 188 159 141 96 139 75 51 56 67 34 30 31 24 13 6 355 344 224 17 332 338 339 328 320 320 325 326 328 326 322 319 309 303 291 284 272 253 230 231 203 256
199 185 177 128 348 52 10 359 20 26 31 10 6 6 359 1 1 9 7 22 7 339 349 338 336 332 315 317 326 322 325 324 325 325 319 300 285 266 268 242 241 201 234
185 192 182 4 356 22 8 2 10 12 6 360 1 359 355 356 360 358 1 355 356 6 5 7 342 331 317 320 345 336 321 326 323 326 323 310 296 280 265 256 229 223 201
245 188 333 351 343 3 5 360 15 7 15 5 356 356 3 1 360 360 356 354 358 358 349 344 327 320 314 321 339 345 325 327 320 321 320 312 307 286 271 259 236 213 201
46 66 45 35 25 32 18 22 20 12 4 2 2 360 3 359 360 355 353 355 356 357 356 326 326 318 301 91 338 334 327 342 360 335 339 320 309 292 284 260 245 235 224
57 87 58 39 34 45 44 35 20 6 1 4 4 5 23 37 14 357 1 357 350 353 358 10 352 318 320 359 127 340 333 318 28 15 340 324 316 308 282 263 251 241 233
55 58 53 65 53 57 56 17 11 6 3 7 13 25 24 9 3 7 2 346 338 339 344 352 349 312 8 59 321 340 336 314 326 354 338 326 315 311 276 272 255 247 240
62 65 80 68 55 55 17 14 9 6 9 6 9 13 8 11 4 349 354 350 345 336 337 1 290 102 7 46 331 333 316 309 287 328 322 299 305 277 271 264 257 240 234
49 32 53 63 42 27 4 4 4 6 6 4 1 5 7 359 360 354 340 347 356 348 8 57 7 21 17 62 78 336 315 250 293 304 309 301 287 266 257 255 259 250 234
41 16 28 33 21 11 8 5 5 4 358 356 356 2 358 354 348 352 347 350 355 16 34 27 20 28 69 63 33 354 328 294 255 294 323 291 275 247 246 248 259 251 235
60 359 11 28 41 10 356 354 358 358 359 353 349 351 346 336 349 347 344 6 15 42 43 17 39 69 72 52 34 20 15 21 2 62 324 256 242 245 244 242 252 243 235
14 18 36 24 3 314 351 11 14 12 5 358 347 353 343 340 358 359 14 27 32 70 29 8 48 87 68 53 57 37 28 11 324 289 290 268 244 247 242 241 240 241 233
73 98 69 35 53 54 56 33 16 6 3 2 358 358 354 353 2 14 27 41 31 25 57 27 43 74 62 61 69 59 42 82 62 4 303 271 249 245 236 235 233 231 232
96 80 76 65 53 38 28 17 8 9 6 351 356 354 351 2 8 24 41 52 47 49 45 51 50 67 71 73 80 73 64 84 86 65 226 245 250 242 237 234 229 224 220
94 67 57 52 39 30 23 17 10 356 354 350 348 355 356 10 21 31 46 59 47 53 50 46 61 73 79 83 86 94 111 79 78 227 232 231 239 234 237 235 227 219 218
55 56 67 66 47 38 24 14 6 5 4 356 353 360 8 24 31 42 53 55 52 61 58 56 69 76 87 92 102 104 108 95 130 149 219 224 227 231 232 231 221 221 222
69 104 66 61 37 31 19 14 9 8 8 11 18 21 23 27 35 47 58 56 55 64 61 65 71 87 92 98 107 111 132 131 137 139 209 219 220 222 228 226 219 218 222
119 82 40 42 23 24 19 21 22 23 28 31 32 31 29 30 36 46 55 58 62 67 73 76 78 90 97 107 111 111 120 136 154 168 209 218 216 221 227 226 219 216 218
41 348 15 9 8 14 8 20 28 32 36 34 30 29 32 32 39 46 54 64 78 83 77 75 82 98 100 112 112 122 123 138 162 203 216 215 213 218 226 220 215 213 213
340 333 351 349 351 358 356 15 29 30 27 29 32 33 31 31 34 43 49 76 87 78 75 74 88 104 106 116 111 126 128 146 167 181 201 210 219 222 224 216 215 217 216
330 328 333 340 343 351 351 5 16 23 26 29 27 28 29 32 36 40 53 64 81 74 74 78 92 110 110 125 115 125 136 150 188 201 208 213 218 218 217 216 216 219 225
323 327 333 340 345 347 348 357 10 18 20 21 21 26 28 32 42 51 57 62 79 77 78 83 95 107 118 113 120 121 129 149 197 208 212 202 213 209 214 214 217 221 225
324 327 335 342 347 347 346 353 1 12 11 15 17 21 28 33 43 53 55 63 74 82 72 48 65 86 98 109 120 112 132 157 176 199 197 207 206 212 217 216 223 224 229
327 332 335 339 343 346 345 348 353 4 2 6 12 19 23 32 39 47 53 61 67 76 88 68 64 80 103 111 126 142 124 153 179 191 194 200 208 214 218 222 225 230 231